Погода в Карши

Погода в Карши : погода сейчас, прогноз погоды и архив. Всё, что Вы хотите узнать о погоде в Карши!

Хотите узнать прогноз погоды в Карши? Тогда Вам сюда: Погода в Карши

Поиск расширенной информации на нашем сайте:

Другие новости

Новости СМИ2

Главная страница сайта

Новости сайта

03.07.2017

Напоминаем, что на нашем специализированном сайте Метеоцентр.Азия вы можете получить высокодетализированные автоматические прогнозы погоды по пунктам России, СНГ и мира в авиационном формате (включающие направление и скорость ветра, видимость, явления погоды, количество и форму облачности, нижнюю и верхнюю границу облачности).


Погода в Карши - сегодня

Время (UTC), дата Ветер
(°,м/с) 
Видим.   Явления Облачность Т
(°С)
Тd
(°С)
f(%) Тe
(°С)
Pmin
(гПа)
dP
(гПа)
Po
(мм)
O2
(г/м3)
Тmin Tmax R s Состояние
почвы
18 24.07.17 010 (С) 10 км    ясно 
+30 +10.4 30 +33  998.1  1.1  718  259    +41       
21 24.07.17 тихо ()   10 км    ясно 
+25.4 +11.5 42 +232      74  24           
00 25.07.17 100 (В) 10 км    ясно 
+21.8 +13.7 60 +29  998.1  -0.5  717  265           
03 25.07.17 100 (В) 10 км    ясно 
+25.8 +13.4 46 +26  997.9  0.4             
06 25.07.17 030 (СВ) 10 км    ясно 
+36.7 +15.8 29 +48  995.9  -0.5  717  251  +11.8         
09 25.07.17 280 (З) 10 км    ясно 
+40.3 +11.1 18 +241      74  23           
12 25.07.17 320 (СЗ) 10 км    ясно 
+40.9 +11.1 17 +41    -1.8             
15 25.07.17 010 (С) 10 км    ясно 
+37 +7.3 16 +37  995.9  2.1  717  253    +41.8       
18 25.07.17 010 (С) 10 км    ясно 
+30.2 +8.2 25 +30  996.3  -0.4  717  259    +41.8       
21 25.07.17 010 (С) 10 км    ясно 
+26 +10 37 +28  996.4  -0.5  716  262           
00 26.07.17 360 (С) 10 км    ясно 
+21.1 +10 49 +23  997  -0.1  716  266           
03 26.07.17 нст () 10 км    ясно 
+27.2 +14 44 +35  997.2  1.1  717  260           
06 26.07.17 020 (С) 10 км    ясно 
+37.4 +13.1 23 +44  996.2  0.3  717  252  +21.1         
09 26.07.17 210 (ЮЗ) 10 км    ясно 
+41.2 +11.1 17 +45  994.7  -1  716  249           
12 26.07.17 320 (СЗ) 10 км    ясно 
+41.8 +9 14 +43  993.9  -0.7  716  249           
15 26.07.17 020 (С) 10 км    ясно 
+38 +9 17 +39  994.5  0.1  716  252    +42.9       
18 26.07.17 340 (С) 10 км    ясно 
+31 +10.5 28 +34  996.3  0.8  717  257    +42.9       
21 26.07.17 350 (С) 10 км    ясно 
+26 +10.7 38 +29  996.9  -0.1  716  262           
00 27.07.17 010 (С) 10 км    ясно 
+27 +10.9 37 +30  996.7  0.1  717  261           
03 27.07.17 360 (С) 10 км    ясно 
+29.8 +12.5 35 +35  997  0.5  717  258           
06 27.07.17 340 (С) 4000 м  мгла  ясно 
+37.4 +11.9 22 +42  997.5  1.5  718  252  +26         
09 27.07.17 360 (С) 10 км  мгла  ясно 
+41.4 +10 15 +43  997.4  0.5  718  250           
12 27.07.17 010 (С) 10 км    ясно 
+41 +11.3 17 +45  997.3  -0.3  718  250           
15 27.07.17 010 (С) 10 км    ясно 
+37.7 +14.3 25 +46  998.9  1.4  719  252    +42       
18 27.07.17 350 (С) 10 км    ясно 
+33.2 +12.7 29 +39  1000.1  0.4  720  256    +42       
Время (UTC), дата Ветер
(°,м/с) 
Видим.   Явления Облачность Т
(°С)
Тd
(°С)
f(%) Тe
(°С)
Pmin
(гПа)
dP
(гПа)
Po
(мм)
O2
(г/м3)
Тmin Tmax R s Состояние
почвы

Для получения пояснительной информации подведите курсор к названию столбца.

ПОГОДА в Карши - архив

Всё, что Вы хотите узнать о погоде в Карши - удобно и подробно!

Выберите нужную дату (начиная с 1 января 2015* года) и нажмите кнопку "Найти".
Будут отображены архивные сводки погоды по пункту Карши, начиная с указанной даты.


Отображать данные в формате CSV (для использования в таблицах Excel)


Внимание! Наш архив погоды предназначен исключительно для личного некоммерческого использования в познавательных целях. Если Вам необходимы официальные справки о состоянии погоды (для производственных, юридических, коммерческих и т.п. целей), обращайтесь в органы Росгидромета.

*Примечание: данная дата относится к архиву по метеостанциям СССР (Россия, СНГ, Балтия).
Архив по метеостанциям Зарубежной Европы и Азии (кроме Китая) хранится 10 дней, по другим регионам земного шара (Китай, Африка, Америка, Австралия, Океания) - 1 день.

Карши - район местоположения метеостанции


Название, широта, долгота, высота метеостанции:
Карши (аэропорт) 38.8°ш. 65.7°д. 376 м над ур. моря [Узбекистан]

Дополнительная информация

В oтличие oт бoльшинства пoгoдных сайтoв мы публикуем пoдрoбную метеoинфoрмацию в детальнoм прoфессиoнальнoм фoрмате.

Характеристики температуры и влажнoсти вoздуха измеряются на высoте 2 м в тени вдали oт зданий и деревьев.
Скoрoсть ветра измеряется на высoте 10 м (на урoвне рoста челoвека скoрoсть ветра ниже в 1.5-2 раза). Если метеoстанция нахoдится в гoрoде или в лесу, тo скoрoсть ветра занижена на 2-4 м/с пo сравнению с oткрытым местoм. Скoрoсть ветра над акватoриями крупных рек и oзёр, а также на вершинах хoлмoв на 2-5 м/с выше, чем в oбычных услoвиях.
Атмoсфернoе давление в разных тoчках местнoсти мoжет значительнo oтличаться oт давления на метеoстанции, в зависимoсти oт услoвий рельефа (при пoдъёме на 10 м давление пoнижается примернo на 1 мм рт.ст.).